• In Sweden
  • List of Countries
  • For 7 days
  • Water Temperature
  • Satellite Maps
  • Weather Map
  • Weather Widgets
  • user-avatar
    Login

    Hourly Weather Durham

    Today, 22 November, Wednesday

    Time Temperature Precipitation Wind Pressure Humidity
    00:00 +11°C° 0 mm 9 mps 740 mmHg 83%
    01:00 +10°C° 0 mm 9 mps 739 mmHg 84%
    02:00 +10°C° 0 mm 8 mps 739 mmHg 84%
    03:00 +10°C° 0 mm 7 mps 739 mmHg 84%
    04:00 +9°C° 0.1 mm 6 mps 738 mmHg 85%
    05:00 +9°C° 0.1 mm 5 mps 738 mmHg 86%
    06:00 +10°C° 0.1 mm 4 mps 737 mmHg 87%
    07:00 +10°C° 0.5 mm 5 mps 736 mmHg 87%
    08:00 +10°C° 0.5 mm 5 mps 736 mmHg 87%
    09:00 +12°C° 0.5 mm 5 mps 735 mmHg 87%
    10:00 +11°C° 1.4 mm 7 mps 734 mmHg 85%
    11:00 +12°C° 1.4 mm 8 mps 733 mmHg 83%
    12:00 +13°C° 1.4 mm 10 mps 732 mmHg 82%
    13:00 +13°C° 0.8 mm 10 mps 732 mmHg 82%
    14:00 +13°C° 0.8 mm 9 mps 731 mmHg 82%
    15:00 +13°C° 0.8 mm 9 mps 730 mmHg 82%
    16:00 +13°C° 1.3 mm 9 mps 730 mmHg 83%
    17:00 +12°C° 1.3 mm 9 mps 729 mmHg 83%
    18:00 +12°C° 1.3 mm 9 mps 729 mmHg 83%
    19:00 +12°C° 0.8 mm 9 mps 728 mmHg 85%
    20:00 +12°C° 0.8 mm 8 mps 728 mmHg 86%
    21:00 +12°C° 0.8 mm 7 mps 727 mmHg 87%
    22:00 +11°C° 0.7 mm 7 mps 727 mmHg 87%
    23:00 +11°C° 0.7 mm 7 mps 727 mmHg 86%

    Tomorrow, 23 November, Thursday

    Time Temperature Precipitation Wind Pressure Humidity
    00:00 +10°C° 0.7 mm 7 mps 727 mmHg 85%
    01:00 +10°C° 0.3 mm 6 mps 727 mmHg 86%
    02:00 +9°C° 0.3 mm 5 mps 727 mmHg 86%
    03:00 +9°C° 0.3 mm 5 mps 727 mmHg 87%
    04:00 +8°C° 0.3 mm 6 mps 727 mmHg 83%
    05:00 +6°C° 0.3 mm 8 mps 728 mmHg 79%
    06:00 +5°C° 0.3 mm 10 mps 728 mmHg 76%
    07:00 +5°C° 0 mm 10 mps 729 mmHg 74%
    08:00 +4°C° 0 mm 11 mps 730 mmHg 73%
    09:00 +4°C° 0 mm 11 mps 730 mmHg 72%
    10:00 +4°C° 0 mm 12 mps 732 mmHg 70%
    11:00 +5°C° 0 mm 12 mps 733 mmHg 69%
    12:00 +5°C° 0 mm 12 mps 734 mmHg 68%
    13:00 +4°C° 0 mm 12 mps 736 mmHg 68%
    14:00 +4°C° 0 mm 11 mps 738 mmHg 67%
    15:00 +5°C° 0 mm 10 mps 739 mmHg 67%
    16:00 +3°C° 0 mm 9 mps 740 mmHg 68%
    17:00 +4°C° 0 mm 8 mps 742 mmHg 70%
    18:00 +3°C° 0 mm 7 mps 743 mmHg 71%
    19:00 +3°C° 0 mm 7 mps 743 mmHg 71%
    20:00 +3°C° 0 mm 6 mps 744 mmHg 71%
    21:00 +3°C° 0 mm 6 mps 745 mmHg 71%
    22:00 +3°C° 0 mm 5 mps 745 mmHg 72%
    23:00 +2°C° 0 mm 5 mps 745 mmHg 73%

    Day after tomorrow, 24 November, Friday

    Time Temperature Precipitation Wind Pressure Humidity
    00:00 +3°C° 0 mm 4 mps 745 mmHg 74%
    01:00 +3°C° 0 mm 4 mps 746 mmHg 76%
    02:00 +1°C° 0 mm 4 mps 746 mmHg 77%
    03:00 +2°C° 0 mm 3 mps 746 mmHg 79%
    04:00 +2°C° 0 mm 3 mps 746 mmHg 79%
    05:00 +2°C° 0 mm 3 mps 747 mmHg 79%
    06:00 +1°C° 0 mm 4 mps 747 mmHg 79%
    07:00 +1°C° 0 mm 4 mps 747 mmHg 79%
    08:00 +2°C° 0 mm 3 mps 748 mmHg 79%
    09:00 +2°C° 0 mm 3 mps 748 mmHg 78%
    10:00 +3°C° 0 mm 4 mps 748 mmHg 74%
    11:00 +4°C° 0 mm 4 mps 749 mmHg 70%
    12:00 +5°C° 0 mm 5 mps 749 mmHg 66%
    13:00 +4°C° 0 mm 4 mps 749 mmHg 68%
    14:00 +4°C° 0 mm 4 mps 749 mmHg 69%
    15:00 +4°C° 0 mm 4 mps 749 mmHg 71%
    16:00 +3°C° 0 mm 4 mps 749 mmHg 73%
    17:00 +1°C° 0 mm 4 mps 749 mmHg 76%
    18:00 0°C° 0 mm 4 mps 750 mmHg 78%
    19:00 0°C° 0 mm 4 mps 750 mmHg 77%
    20:00 0°C° 0 mm 4 mps 750 mmHg 75%
    21:00 0°C° 0 mm 4 mps 750 mmHg 74%
    22:00 0°C° 0 mm 4 mps 750 mmHg 74%
    23:00 0°C° 0 mm 4 mps 750 mmHg 73%

    25 November, Saturday

    Time Temperature Precipitation Wind Pressure Humidity
    00:00 0°C° 0 mm 4 mps 749 mmHg 73%
    01:00 0°C° 0 mm 4 mps 749 mmHg 74%
    02:00 0°C° 0 mm 4 mps 749 mmHg 74%
    03:00 0°C° 0 mm 4 mps 749 mmHg 75%
    04:00 0°C° 0 mm 5 mps 749 mmHg 75%
    05:00 0°C° 0 mm 5 mps 748 mmHg 75%
    06:00 0°C° 0 mm 5 mps 748 mmHg 75%
    07:00 0°C° 0 mm 5 mps 748 mmHg 75%
    08:00 0°C° 0 mm 5 mps 749 mmHg 74%
    09:00 0°C° 0 mm 5 mps 749 mmHg 73%
    10:00 +1°C° 0 mm 6 mps 749 mmHg 68%
    11:00 +2°C° 0 mm 6 mps 749 mmHg 64%
    12:00 +3°C° 0 mm 6 mps 750 mmHg 59%
    13:00 +3°C° 0 mm 7 mps 750 mmHg 62%
    14:00 +2°C° 0 mm 7 mps 750 mmHg 64%
    15:00 +2°C° 0 mm 7 mps 750 mmHg 67%
    16:00 +1°C° 0.1 mm 8 mps 750 mmHg 68%
    17:00 +1°C° 0.1 mm 9 mps 750 mmHg 70%
    18:00 +1°C° 0.1 mm 10 mps 750 mmHg 71%
    19:00 +1°C° 0.2 mm 9 mps 750 mmHg 74%
    20:00 +2°C° 0.2 mm 9 mps 750 mmHg 77%
    21:00 +2°C° 0.2 mm 9 mps 751 mmHg 80%
    22:00 +2°C° 0 mm 9 mps 751 mmHg 78%
    23:00 +2°C° 0 mm 8 mps 752 mmHg 77%

    26 November, Sunday

    Time Temperature Precipitation Wind Pressure Humidity
    00:00 +1°C° 0 mm 8 mps 752 mmHg 76%
    01:00 +1°C° 0 mm 8 mps 752 mmHg 76%
    02:00 +1°C° 0 mm 8 mps 753 mmHg 75%
    03:00 0°C° 0 mm 8 mps 753 mmHg 75%
    04:00 0°C° 0 mm 8 mps 753 mmHg 74%
    05:00 0°C° 0 mm 7 mps 754 mmHg 74%
    06:00 0°C° 0 mm 7 mps 754 mmHg 73%
    07:00 0°C° 0 mm 7 mps 754 mmHg 72%
    08:00 0°C° 0 mm 7 mps 755 mmHg 71%
    09:00 0°C° 0 mm 7 mps 755 mmHg 70%
    10:00 0°C° 0 mm 8 mps 756 mmHg 67%
    11:00 +1°C° 0 mm 8 mps 756 mmHg 64%
    12:00 +2°C° 0 mm 8 mps 756 mmHg 61%
    13:00 +2°C° 0 mm 8 mps 756 mmHg 63%
    14:00 +2°C° 0 mm 7 mps 756 mmHg 64%
    15:00 +2°C° 0 mm 7 mps 756 mmHg 66%
    16:00 +2°C° 0 mm 7 mps 757 mmHg 68%
    17:00 0°C° 0 mm 7 mps 757 mmHg 70%
    18:00 0°C° 0 mm 7 mps 757 mmHg 72%
    19:00 -1°C° 0 mm 7 mps 757 mmHg 72%
    20:00 -1°C° 0 mm 6 mps 757 mmHg 72%
    21:00 -1°C° 0 mm 6 mps 758 mmHg 73%
    22:00 0°C° 0 mm 5 mps 757 mmHg 74%
    23:00 0°C° 0 mm 5 mps 757 mmHg 75%

    27 November, Monday

    Time Temperature Precipitation Wind Pressure Humidity
    00:00 0°C° 0 mm 4 mps 757 mmHg 76%
    01:00 0°C° 0 mm 4 mps 757 mmHg 78%
    02:00 0°C° 0 mm 4 mps 756 mmHg 81%
    03:00 +1°C° 0 mm 4 mps 756 mmHg 83%
    04:00 +1°C° 0.3 mm 5 mps 754 mmHg 84%
    05:00 +2°C° 0.3 mm 5 mps 753 mmHg 85%
    06:00 +3°C° 0.3 mm 6 mps 752 mmHg 86%
    07:00 +3°C° 0.4 mm 7 mps 751 mmHg 86%
    08:00 +4°C° 0.4 mm 7 mps 750 mmHg 86%
    09:00 +4°C° 0.4 mm 7 mps 749 mmHg 87%
    10:00 +4°C° 0.5 mm 7 mps 749 mmHg 85%
    11:00 +4°C° 0.5 mm 6 mps 748 mmHg 84%
    12:00 +5°C° 0.5 mm 5 mps 747 mmHg 83%
    13:00 +4°C° 0.3 mm 4 mps 747 mmHg 82%
    14:00 +4°C° 0.3 mm 3 mps 746 mmHg 81%
    15:00 +3°C° 0.3 mm 3 mps 746 mmHg 81%
    16:00 +3°C° 0 mm 3 mps 745 mmHg 81%
    17:00 +2°C° 0 mm 3 mps 745 mmHg 82%
    18:00 +2°C° 0 mm 3 mps 745 mmHg 83%
    19:00 +2°C° 0 mm 3 mps 744 mmHg 84%
    20:00 +2°C° 0 mm 3 mps 744 mmHg 85%
    21:00 +1°C° 0 mm 3 mps 744 mmHg 86%
    22:00 +1°C° 0 mm 3 mps 743 mmHg 86%
    23:00 +1°C° 0 mm 3 mps 743 mmHg 87%
    Show more